Time,TemperatureF,DewpointF,PressureIn,WindDirection,WindDirectionDegrees,WindSpeedMPH,WindSpeedGustMPH,Humidity,HourlyPrecipIn,Conditions,Clouds,dailyrainin,SoftwareType,DateUTC
2013-04-25 00:05:00,57.3,51.0,29.77,SE,127,0.0,1.0,79,0.00,,,0.00,weatherlink.com 1.10,2013-04-25 04:05:00,
2013-04-25 00:20:00,57.5,51.0,29.77,SE,130,0.0,3.0,80,0.00,,,0.00,weatherlink.com 1.10,2013-04-25 04:20:00,
2013-04-25 00:35:00,58.6,52.0,29.79,NNW,340,1.0,1.0,79,0.00,,,0.00,weatherlink.com 1.10,2013-04-25 04:35:00,
2013-04-25 00:50:00,58.4,54.0,29.81,ESE,117,0.0,2.0,85,0.06,,,0.06,weatherlink.com 1.10,2013-04-25 04:50:00,
2013-04-25 01:06:00,56.6,54.0,29.81,ESE,115,0.0,2.0,90,0.07,,,0.07,weatherlink.com 1.10,2013-04-25 05:06:00,
2013-04-25 01:21:00,56.2,54.0,29.82,ESE,116,0.0,1.0,91,0.07,,,0.07,weatherlink.com 1.10,2013-04-25 05:21:00,
2013-04-25 01:36:00,56.0,54.0,29.83,SSW,211,0.0,1.0,93,0.07,,,0.07,weatherlink.com 1.10,2013-04-25 05:36:00,
2013-04-25 01:51:00,56.2,54.0,29.85,NW,311,1.0,1.0,92,0.01,,,0.07,weatherlink.com 1.10,2013-04-25 05:51:00,
2013-04-25 02:06:00,56.0,48.0,29.87,NE,53,1.0,5.0,75,0.00,,,0.07,weatherlink.com 1.10,2013-04-25 06:06:00,
2013-04-25 02:21:00,54.2,45.0,29.89,ENE,57,2.0,6.0,71,0.00,,,0.07,weatherlink.com 1.10,2013-04-25 06:21:00,
2013-04-25 02:36:00,52.7,44.0,29.90,East,89,0.0,5.0,71,0.00,,,0.07,weatherlink.com 1.10,2013-04-25 06:36:00,
2013-04-25 02:51:00,51.4,41.0,29.93,WNW,288,0.0,9.0,68,0.00,,,0.07,weatherlink.com 1.10,2013-04-25 06:51:00,
2013-04-25 03:06:00,50.1,40.0,29.93,SE,143,2.0,5.0,68,0.00,,,0.07,weatherlink.com 1.10,2013-04-25 07:06:00,
2013-04-25 03:21:00,49.3,38.0,29.95,South,186,0.0,7.0,66,0.00,,,0.07,weatherlink.com 1.10,2013-04-25 07:21:00,
2013-04-25 03:36:00,48.7,38.0,29.97,SW,226,0.0,5.0,66,0.00,,,0.07,weatherlink.com 1.10,2013-04-25 07:36:00,
2013-04-25 03:51:00,48.2,36.0,29.98,North,6,0.0,6.0,64,0.00,,,0.07,weatherlink.com 1.10,2013-04-25 07:51:00,
2013-04-25 04:06:00,47.8,34.0,30.00,ENE,75,1.0,8.0,60,0.00,,,0.07,weatherlink.com 1.10,2013-04-25 08:06:00,
2013-04-25 04:21:00,47.3,35.0,30.01,WNW,298,0.0,3.0,62,0.00,,,0.07,weatherlink.com 1.10,2013-04-25 08:21:00,
2013-04-25 04:36:00,47.1,34.0,30.01,South,173,2.0,5.0,61,0.00,,,0.07,weatherlink.com 1.10,2013-04-25 08:36:00,
2013-04-25 04:51:00,46.5,34.0,30.03,SSE,165,0.0,4.0,63,0.00,,,0.07,weatherlink.com 1.10,2013-04-25 08:51:00,
2013-04-25 05:06:00,45.7,33.0,30.03,NNW,330,0.0,4.0,62,0.00,,,0.07,weatherlink.com 1.10,2013-04-25 09:06:00,
2013-04-25 05:21:00,45.2,33.0,30.05,SSW,206,0.0,8.0,63,0.00,,,0.07,weatherlink.com 1.10,2013-04-25 09:21:00,
2013-04-25 05:37:00,44.7,33.0,30.06,South,176,0.0,2.0,64,0.00,,,0.07,weatherlink.com 1.10,2013-04-25 09:37:00,
2013-04-25 05:52:00,43.9,33.0,30.07,SSE,153,0.0,1.0,65,0.00,,,0.07,weatherlink.com 1.10,2013-04-25 09:52:00,
2013-04-25 06:07:00,44.1,33.0,30.08,NNW,328,0.0,7.0,64,0.00,,,0.07,weatherlink.com 1.10,2013-04-25 10:07:00,
2013-04-25 06:22:00,44.1,33.0,30.09,SW,235,0.0,3.0,65,0.00,,,0.07,weatherlink.com 1.10,2013-04-25 10:22:00,
2013-04-25 06:37:00,44.0,33.0,30.09,NNE,29,0.0,3.0,65,0.00,,,0.07,weatherlink.com 1.10,2013-04-25 10:37:00,
2013-04-25 06:52:00,44.5,33.0,30.10,ENE,74,0.0,5.0,65,0.00,,,0.07,weatherlink.com 1.10,2013-04-25 10:52:00,
2013-04-25 07:07:00,44.5,33.0,30.11,ENE,63,0.0,2.0,65,0.00,,,0.07,weatherlink.com 1.10,2013-04-25 11:07:00,
2013-04-25 07:22:00,44.7,33.0,30.11,WNW,295,0.0,3.0,63,0.00,,,0.07,weatherlink.com 1.10,2013-04-25 11:22:00,
2013-04-25 07:37:00,45.2,32.0,30.12,East,90,0.0,5.0,60,0.00,,,0.07,weatherlink.com 1.10,2013-04-25 11:37:00,
2013-04-25 07:52:00,45.6,31.0,30.13,NW,319,1.0,5.0,57,0.00,,,0.07,weatherlink.com 1.10,2013-04-25 11:52:00,
2013-04-25 08:07:00,46.0,31.0,30.14,WNW,285,2.0,3.0,57,0.00,,,0.07,weatherlink.com 1.10,2013-04-25 12:07:00,
2013-04-25 08:22:00,48.0,31.0,30.14,SE,142,5.0,5.0,52,0.00,,,0.07,weatherlink.com 1.10,2013-04-25 12:22:00,
2013-04-25 08:37:00,49.2,30.0,30.14,ESE,105,0.0,3.0,48,0.00,,,0.07,weatherlink.com 1.10,2013-04-25 12:37:00,
2013-04-25 08:52:00,50.2,31.0,30.15,SW,214,0.0,2.0,48,0.00,,,0.07,weatherlink.com 1.10,2013-04-25 12:52:00,
2013-04-25 09:07:00,50.5,29.0,30.15,NW,312,1.0,4.0,44,0.00,,,0.07,weatherlink.com 1.10,2013-04-25 13:07:00,
2013-04-25 09:22:00,49.6,29.0,30.16,WNW,291,1.0,5.0,46,0.00,,,0.07,weatherlink.com 1.10,2013-04-25 13:22:00,
2013-04-25 09:37:00,48.9,29.0,30.16,East,85,0.0,5.0,46,0.00,,,0.07,weatherlink.com 1.10,2013-04-25 13:37:00,
2013-04-25 09:52:00,49.4,30.0,30.16,South,174,1.0,5.0,47,0.00,,,0.07,weatherlink.com 1.10,2013-04-25 13:52:00,
2013-04-25 10:07:00,49.9,30.0,30.17,NW,309,0.0,6.0,46,0.00,,,0.07,weatherlink.com 1.10,2013-04-25 14:07:00,
2013-04-25 10:22:00,51.7,32.0,30.17,ESE,122,0.0,3.0,47,0.00,,,0.07,weatherlink.com 1.10,2013-04-25 14:22:00,
2013-04-25 10:37:00,53.2,30.0,30.18,ENE,68,4.0,6.0,41,0.00,,,0.07,weatherlink.com 1.10,2013-04-25 14:37:00,
2013-04-25 10:52:00,53.9,32.0,30.18,SSE,150,0.0,4.0,43,0.00,,,0.07,weatherlink.com 1.10,2013-04-25 14:52:00,
2013-04-25 11:07:00,54.6,31.0,30.18,SW,231,0.0,3.0,40,0.00,,,0.07,weatherlink.com 1.10,2013-04-25 15:07:00,
2013-04-25 11:22:00,56.1,32.0,30.18,West,275,1.0,2.0,40,0.00,,,0.07,weatherlink.com 1.10,2013-04-25 15:22:00,
2013-04-25 11:37:00,58.2,34.0,30.18,SSW,201,0.0,3.0,40,0.00,,,0.07,weatherlink.com 1.10,2013-04-25 15:37:00,
2013-04-25 11:52:00,59.0,33.0,30.18,East,84,1.0,1.0,38,0.00,,,0.07,weatherlink.com 1.10,2013-04-25 15:52:00,
2013-04-25 12:07:00,59.3,33.0,30.18,ESE,116,0.0,2.0,38,0.00,,,0.07,weatherlink.com 1.10,2013-04-25 16:07:00,
2013-04-25 12:22:00,59.8,33.0,30.18,ENE,71,1.0,2.0,37,0.00,,,0.07,weatherlink.com 1.10,2013-04-25 16:22:00,
2013-04-25 12:37:00,60.6,32.0,30.17,ENE,69,0.0,2.0,34,0.00,,,0.07,weatherlink.com 1.10,2013-04-25 16:37:00,
2013-04-25 12:52:00,60.7,32.0,30.17,SW,215,0.0,3.0,34,0.00,,,0.07,weatherlink.com 1.10,2013-04-25 16:52:00,
2013-04-25 13:07:00,60.4,32.0,30.16,SE,127,0.0,2.0,35,0.00,,,0.07,weatherlink.com 1.10,2013-04-25 17:07:00,
2013-04-25 13:22:00,61.2,32.0,30.16,NE,39,1.0,4.0,34,0.00,,,0.07,weatherlink.com 1.10,2013-04-25 17:22:00,
2013-04-25 13:37:00,62.8,34.0,30.16,ESE,122,1.0,4.0,34,0.00,,,0.07,weatherlink.com 1.10,2013-04-25 17:37:00,
2013-04-25 13:53:00,62.7,34.0,30.16,NE,54,0.0,3.0,34,0.00,,,0.07,weatherlink.com 1.10,2013-04-25 17:53:00,
2013-04-25 14:08:00,63.0,31.0,30.16,WNW,288,0.0,2.0,30,0.00,,,0.07,weatherlink.com 1.10,2013-04-25 18:08:00,
2013-04-25 14:23:00,63.4,30.0,30.16,WSW,257,1.0,3.0,28,0.00,,,0.07,weatherlink.com 1.10,2013-04-25 18:23:00,
2013-04-25 14:38:00,64.7,32.0,30.15,ENE,63,0.0,1.0,29,0.00,,,0.07,weatherlink.com 1.10,2013-04-25 18:38:00,
2013-04-25 14:53:00,64.5,34.0,30.15,WSW,255,0.0,2.0,32,0.00,,,0.07,weatherlink.com 1.10,2013-04-25 18:53:00,
2013-04-25 15:08:00,64.8,29.0,30.14,SSE,150,0.0,4.0,26,0.00,,,0.07,weatherlink.com 1.10,2013-04-25 19:08:00,
2013-04-25 15:23:00,64.9,28.0,30.14,South,174,0.0,4.0,25,0.00,,,0.07,weatherlink.com 1.10,2013-04-25 19:23:00,
2013-04-25 15:38:00,65.3,30.0,30.14,NNW,327,1.0,2.0,27,0.00,,,0.07,weatherlink.com 1.10,2013-04-25 19:38:00,
2013-04-25 15:53:00,65.7,29.0,30.14,ENE,71,3.0,3.0,25,0.00,,,0.07,weatherlink.com 1.10,2013-04-25 19:53:00,
2013-04-25 16:08:00,65.2,27.0,30.14,East,80,1.0,2.0,24,0.00,,,0.07,weatherlink.com 1.10,2013-04-25 20:08:00,
2013-04-25 16:23:00,65.8,32.0,30.14,East,89,1.0,2.0,28,0.00,,,0.07,weatherlink.com 1.10,2013-04-25 20:23:00,
2013-04-25 16:38:00,66.4,29.0,30.14,ESE,116,1.0,2.0,25,0.00,,,0.07,weatherlink.com 1.10,2013-04-25 20:38:00,
2013-04-25 16:53:00,67.0,31.0,30.14,SE,135,0.0,1.0,26,0.00,,,0.07,weatherlink.com 1.10,2013-04-25 20:53:00,
2013-04-25 17:08:00,67.1,30.0,30.14,SSE,158,0.0,2.0,25,0.00,,,0.07,weatherlink.com 1.10,2013-04-25 21:08:00,
2013-04-25 17:23:00,67.0,30.0,30.14,SE,142,0.0,1.0,25,0.00,,,0.07,weatherlink.com 1.10,2013-04-25 21:23:00,
2013-04-25 17:38:00,66.6,31.0,30.15,East,82,0.0,2.0,27,0.00,,,0.07,weatherlink.com 1.10,2013-04-25 21:38:00,
2013-04-25 17:53:00,65.7,31.0,30.15,SSE,154,0.0,1.0,27,0.00,,,0.07,weatherlink.com 1.10,2013-04-25 21:53:00,
2013-04-25 18:08:00,66.2,30.0,30.15,ENE,75,1.0,3.0,26,0.00,,,0.07,weatherlink.com 1.10,2013-04-25 22:08:00,
2013-04-25 18:23:00,62.8,29.0,30.16,South,176,0.0,1.0,28,0.00,,,0.07,weatherlink.com 1.10,2013-04-25 22:23:00,
2013-04-25 18:38:00,60.5,30.0,30.16,SSE,167,0.0,1.0,31,0.00,,,0.07,weatherlink.com 1.10,2013-04-25 22:38:00,
2013-04-25 18:53:00,58.9,28.0,30.16,ENE,78,0.0,2.0,31,0.00,,,0.07,weatherlink.com 1.10,2013-04-25 22:53:00,
2013-04-25 19:08:00,57.9,29.0,30.17,East,86,0.0,1.0,33,0.00,,,0.07,weatherlink.com 1.10,2013-04-25 23:08:00,
2013-04-25 19:23:00,57.0,29.0,30.17,East,90,0.0,1.0,35,0.00,,,0.07,weatherlink.com 1.10,2013-04-25 23:23:00,
2013-04-25 19:38:00,56.0,30.0,30.18,East,91,0.0,1.0,37,0.00,,,0.07,weatherlink.com 1.10,2013-04-25 23:38:00,
2013-04-25 19:53:00,54.7,30.0,30.18,East,90,0.0,0.0,39,0.00,,,0.07,weatherlink.com 1.10,2013-04-25 23:53:00,
2013-04-25 20:08:00,53.6,30.0,30.19,East,90,0.0,0.0,40,0.00,,,0.07,weatherlink.com 1.10,2013-04-26 00:08:00,
2013-04-25 20:23:00,52.6,30.0,30.19,East,90,0.0,1.0,43,0.00,,,0.07,weatherlink.com 1.10,2013-04-26 00:23:00,
2013-04-25 20:38:00,51.9,30.0,30.20,East,97,0.0,0.0,44,0.00,,,0.07,weatherlink.com 1.10,2013-04-26 00:38:00,
2013-04-25 20:53:00,51.0,30.0,30.21,East,82,0.0,0.0,45,0.00,,,0.07,weatherlink.com 1.10,2013-04-26 00:53:00,
2013-04-25 21:08:00,49.5,31.0,30.22,East,82,0.0,0.0,50,0.00,,,0.07,weatherlink.com 1.10,2013-04-26 01:08:00,
2013-04-25 21:23:00,48.0,33.0,30.23,East,82,0.0,0.0,57,0.00,,,0.07,weatherlink.com 1.10,2013-04-26 01:23:00,
2013-04-25 21:38:00,46.5,33.0,30.23,East,82,0.0,0.0,59,0.00,,,0.07,weatherlink.com 1.10,2013-04-26 01:38:00,
2013-04-25 21:53:00,45.2,34.0,30.23,East,82,0.0,0.0,64,0.00,,,0.07,weatherlink.com 1.10,2013-04-26 01:53:00,
2013-04-25 22:08:00,44.1,33.0,30.24,East,82,0.0,0.0,65,0.00,,,0.07,weatherlink.com 1.10,2013-04-26 02:08:00,
2013-04-25 22:23:00,43.3,34.0,30.24,East,82,0.0,0.0,69,0.00,,,0.07,weatherlink.com 1.10,2013-04-26 02:23:00,
2013-04-25 22:38:00,42.7,33.0,30.24,East,82,0.0,0.0,69,0.00,,,0.07,weatherlink.com 1.10,2013-04-26 02:38:00,
2013-04-25 22:53:00,42.1,33.0,30.24,East,82,0.0,0.0,71,0.00,,,0.07,weatherlink.com 1.10,2013-04-26 02:53:00,
2013-04-25 23:08:00,41.7,33.0,30.24,East,82,0.0,0.0,72,0.00,,,0.07,weatherlink.com 1.10,2013-04-26 03:08:00,
2013-04-25 23:23:00,41.5,33.0,30.25,East,82,0.0,0.0,73,0.00,,,0.07,weatherlink.com 1.10,2013-04-26 03:23:00,
2013-04-25 23:38:00,41.4,34.0,30.25,East,82,0.0,0.0,74,0.00,,,0.07,weatherlink.com 1.10,2013-04-26 03:38:00,
2013-04-25 23:53:00,41.3,34.0,30.26,East,82,0.0,0.0,75,0.00,,,0.07,weatherlink.com 1.10,2013-04-26 03:53:00,